Theta_e
314 315 316 321 331 334 335 335 334 334 338 343 344 346 347 346 348 355 351 352 350 350 338 335 332 327 326 340 341 339 338 338 336 330 325 326 326 326 327 327 327 329 330 330 329 329 330 329 329
321 314 316 321 328 335 335 334 334 334 340 338 341 343 345 348 349 353 353 352 352 351 339 337 331 329 324 337 338 338 338 338 336 330 325 326 327 328 329 330 330 331 330 330 330 328 326 325 324
315 315 318 321 325 329 334 333 334 333 331 334 338 340 341 348 351 352 354 352 353 350 340 338 333 331 326 326 335 337 337 337 335 329 325 325 326 328 328 327 327 327 326 326 324 323 322 322 321
315 314 317 321 321 326 330 334 334 333 332 334 337 339 347 352 353 353 353 353 353 348 343 339 334 332 328 321 325 331 334 334 332 325 325 325 325 325 325 324 323 323 322 322 322 321 321 321 320
315 316 319 319 321 323 327 330 332 333 332 335 337 339 347 353 353 354 354 354 352 348 346 339 336 333 327 320 321 324 328 327 325 324 325 324 324 324 323 323 322 322 321 321 321 321 321 321 321
317 317 319 320 321 322 323 326 330 332 332 332 335 337 343 353 354 354 354 353 351 349 348 339 337 334 327 320 321 321 321 321 323 325 324 323 323 323 322 322 322 322 322 321 321 321 321 321 321
319 319 319 320 321 322 323 324 328 330 332 332 332 341 349 353 355 354 353 352 352 349 347 339 337 334 329 320 320 319 320 322 324 325 323 322 322 322 322 322 321 321 321 321 321 321 320 320 326
317 320 319 320 320 321 322 321 323 327 330 331 331 336 339 350 354 354 352 351 352 349 347 345 339 335 331 322 321 320 321 323 325 324 322 322 322 322 322 321 321 321 322 323 322 321 321 322 332
317 319 319 320 320 321 321 322 321 323 325 330 331 334 350 350 352 352 350 350 350 348 347 344 344 342 340 336 321 321 322 324 326 324 323 322 331 326 324 326 323 323 323 328 325 330 329 332 334
319 318 318 319 321 320 321 320 320 322 322 325 331 346 350 353 351 349 348 348 348 348 347 345 344 344 343 341 329 328 323 326 333 332 324 335 336 335 327 324 321 323 333 335 335 336 335 339 344
319 319 319 318 318 317 319 320 320 322 324 323 324 338 349 352 351 348 348 347 347 347 347 346 346 347 345 343 340 338 335 335 338 340 328 335 330 327 332 333 335 339 341 344 344 345 345 346 346
319 319 318 318 317 316 317 318 320 320 322 324 328 332 347 351 352 348 349 349 348 348 347 347 348 348 346 345 345 343 340 338 336 335 323 325 327 325 327 333 339 340 345 346 347 345 346 350 351
317 318 318 318 317 316 316 318 319 320 320 329 325 340 347 350 352 351 350 349 349 349 348 348 349 349 347 347 346 345 344 340 337 333 320 331 334 327 327 331 342 346 346 347 348 349 349 350 346
314 315 316 318 319 317 317 318 318 319 319 321 323 322 332 347 351 352 351 349 349 349 348 348 348 347 347 346 346 344 344 343 336 336 329 320 324 323 332 335 346 347 347 348 346 348 347 345 345
315 316 317 317 319 319 318 318 319 318 319 320 323 323 330 336 349 351 350 349 348 348 349 349 339 345 347 347 338 338 342 342 338 335 321 319 321 321 325 345 349 346 346 344 346 342 343 344 331
315 316 317 317 317 318 319 320 319 318 319 320 321 321 330 337 343 349 349 349 348 347 341 334 334 347 337 344 343 345 344 340 337 333 319 319 320 321 332 347 349 342 342 343 345 342 338 329 321
314 316 316 316 318 318 320 320 319 318 318 320 320 321 328 338 344 348 348 348 348 346 334 330 330 331 329 338 342 342 334 333 335 327 320 320 323 328 340 345 337 338 337 340 336 331 323 315 314
314 315 316 316 318 318 320 320 320 319 319 319 320 321 325 338 345 348 348 347 347 346 338 331 331 328 326 329 329 335 327 330 335 333 334 329 335 341 340 339 342 339 337 337 334 329 327 317 314
315 314 316 316 316 319 318 320 320 320 319 319 320 320 322 337 344 348 349 348 346 345 335 333 331 328 326 324 327 331 333 336 338 340 342 337 346 347 345 345 344 340 335 332 330 328 325 323 316
317 314 316 317 317 318 320 319 320 320 321 319 320 320 322 336 345 350 349 348 347 343 337 333 333 330 325 325 334 335 337 342 345 347 347 348 347 346 346 346 341 339 335 333 330 327 326 326 323
316 317 319 319 317 317 319 321 319 320 320 320 320 320 321 333 346 349 350 348 348 347 343 341 335 332 327 326 332 333 346 348 348 345 343 347 346 344 344 343 339 334 333 330 328 327 326 322 317
315 315 320 324 319 316 319 321 321 320 320 321 320 321 328 335 342 348 350 349 349 349 348 347 342 334 330 331 342 338 344 346 347 343 344 345 345 344 344 341 336 334 331 329 328 329 323 316 316
313 317 321 322 317 318 319 321 321 320 319 320 322 322 325 334 341 345 348 349 349 349 348 348 346 341 337 339 344 343 345 346 343 339 338 342 342 340 337 336 335 330 329 328 324 323 316 316 316
315 317 323 322 320 320 320 320 321 320 321 322 322 322 326 334 341 345 346 348 348 348 347 347 346 346 345 342 342 342 345 341 339 335 336 337 338 336 336 335 335 334 328 325 328 320 317 317 316
318 322 323 321 321 320 320 319 323 320 321 323 323 323 328 335 341 346 347 347 348 348 348 347 347 345 344 343 344 344 344 340 339 336 335 335 334 335 336 332 326 326 326 324 317 317 317 317 314
319 323 321 320 319 320 320 319 323 323 321 320 322 324 329 334 339 345 347 347 347 348 347 347 346 348 345 345 345 344 344 341 340 337 337 336 337 336 334 328 327 327 326 317 318 317 316 313 310
320 324 322 324 321 321 319 321 324 324 322 322 323 324 328 332 336 341 346 347 348 348 347 347 347 347 346 344 342 341 339 342 340 336 336 335 336 334 331 328 326 319 318 318 318 317 315 311 307
321 320 320 323 321 321 320 322 325 324 323 324 324 326 330 334 337 339 343 346 347 347 347 346 345 345 344 343 340 338 337 336 337 336 336 336 335 333 329 326 319 319 319 318 317 314 312 307 307
319 322 322 325 326 323 323 326 330 332 331 328 324 325 330 335 338 340 342 344 344 344 344 344 343 343 342 340 338 337 335 336 337 337 335 333 331 328 325 319 319 320 318 316 314 310 307 306 308
318 320 322 324 323 325 322 331 331 332 332 331 330 330 332 335 338 340 342 342 342 342 343 340 341 342 337 335 337 337 336 335 337 334 330 327 327 323 320 321 320 319 316 314 310 307 306 307 308
Wind_Speed
8 8 8 6 8 8 18 19 13 8 7 1 3 4 3 5 5 4 8 13 24 28 30 27 24 21 21 26 26 24 21 18 15 14 13 13 14 14 14 14 12 11 9 8 7 6 4 4 5
5 6 8 11 9 16 17 20 15 15 3 2 4 6 7 1 1 5 12 17 25 28 31 28 26 22 22 26 25 23 21 18 15 14 14 13 14 14 13 12 10 9 8 7 5 4 3 3 3
7 11 12 6 16 21 20 17 19 17 7 7 3 4 5 3 3 6 7 22 28 28 32 30 27 23 21 24 25 23 21 18 16 14 14 13 13 12 11 10 9 7 6 5 4 2 2 2 2
9 9 10 13 24 29 28 18 13 19 12 9 7 7 3 2 1 5 14 24 29 28 29 29 27 24 21 23 24 23 22 19 16 16 14 13 12 11 10 9 7 6 5 4 3 1 1 2 3
13 12 13 20 29 28 20 27 11 16 18 9 6 4 2 1 3 8 20 26 29 27 26 30 26 23 20 22 24 23 22 19 18 17 15 13 12 10 9 8 7 6 5 3 2 0 1 3 4
15 15 15 23 26 28 26 20 20 18 16 12 9 5 1 3 7 12 21 27 28 27 26 30 26 22 20 21 23 23 22 21 19 16 14 13 12 10 9 8 6 5 4 3 2 2 2 3 5
21 14 23 25 24 27 27 23 21 23 20 15 7 5 3 6 10 15 22 27 28 26 26 30 27 23 20 20 22 22 22 20 18 16 14 13 12 10 9 7 6 4 3 2 3 4 4 5 5
22 16 26 27 23 29 22 20 26 25 21 21 7 6 8 11 14 19 24 27 26 27 25 25 27 25 22 21 22 22 21 19 17 16 14 13 11 10 8 6 5 4 3 4 5 5 6 5 5
16 14 20 29 28 22 20 19 24 26 27 16 17 12 3 11 19 24 27 26 26 26 26 26 24 22 20 20 22 21 20 19 17 15 14 12 7 7 5 5 4 4 5 6 5 5 5 6 6
16 17 27 20 21 15 25 15 18 21 26 30 19 7 11 17 23 28 30 30 29 28 27 26 25 24 21 18 21 20 21 19 16 14 15 9 9 7 6 4 5 5 5 6 6 6 6 8 7
26 24 18 22 22 16 19 21 18 22 19 27 31 22 16 20 24 28 27 28 29 28 27 26 25 23 22 19 18 17 16 16 16 15 14 12 9 7 4 3 3 4 6 6 8 7 7 8 7
24 24 29 21 19 18 22 24 22 27 22 16 20 29 21 23 27 30 28 28 29 28 27 26 25 23 22 20 18 16 15 14 14 15 17 13 9 9 7 3 4 4 5 7 8 7 9 8 10
24 24 20 26 22 22 22 26 19 25 25 8 7 8 19 22 24 26 26 26 26 27 28 26 24 24 23 22 19 17 15 14 13 14 17 13 10 9 6 6 3 3 5 6 8 8 7 9 10
13 24 27 20 29 26 19 22 24 24 21 18 14 12 17 21 25 26 29 28 28 27 28 26 27 25 24 22 21 20 17 15 14 12 14 16 12 11 6 4 3 4 3 5 4 8 10 13 15
18 19 16 23 23 26 23 23 30 29 28 28 21 15 13 19 25 29 30 30 29 28 27 27 29 27 25 22 23 20 18 16 14 13 14 15 14 13 9 5 3 4 2 2 2 9 13 16 13
15 20 19 21 25 25 20 30 27 31 29 21 19 16 13 15 24 27 28 27 28 27 29 28 25 26 27 24 22 19 18 17 15 15 16 17 17 14 12 6 6 8 7 6 6 9 14 11 15
19 18 25 23 20 22 24 24 22 32 30 28 23 18 15 14 21 25 27 27 28 28 29 28 27 26 26 26 22 20 20 18 17 18 19 21 20 19 15 16 14 11 9 7 2 9 16 19 20
16 22 21 23 21 26 30 24 11 17 21 27 27 24 18 16 21 25 26 27 27 28 28 29 28 26 27 26 25 20 21 20 18 17 17 21 18 18 21 19 16 14 14 14 11 3 9 21 23
22 20 21 18 22 19 30 25 25 14 11 24 27 28 22 19 19 23 26 26 26 27 32 30 29 31 30 31 28 24 21 18 15 14 16 17 14 17 20 19 14 11 10 9 11 5 6 8 27
27 19 21 18 18 23 17 26 26 25 19 15 23 28 26 21 20 24 26 27 27 29 29 32 34 31 32 30 24 23 20 14 12 12 13 16 23 23 19 16 16 14 13 14 9 8 5 3 12
24 17 16 19 22 24 13 19 24 27 25 21 17 26 28 26 24 25 26 28 26 27 31 31 33 31 31 30 26 23 19 16 21 23 22 24 23 23 20 18 14 13 9 11 13 7 1 5 18
19 21 10 22 16 15 20 12 22 26 24 23 23 26 28 27 25 25 26 27 27 25 23 23 28 31 31 28 22 23 16 14 14 18 17 18 21 23 20 16 13 10 12 15 9 4 7 13 15
12 7 16 16 16 18 21 12 21 21 20 26 23 28 30 27 26 28 28 26 24 22 21 19 21 26 26 25 20 19 15 17 16 13 15 19 20 17 14 15 13 15 15 11 12 11 12 15 15
10 12 25 13 12 13 18 19 13 21 26 25 24 28 29 27 25 26 27 24 21 20 21 20 21 21 23 22 20 18 17 16 17 16 19 20 21 21 18 17 15 15 16 16 12 11 13 14 16
5 7 8 10 8 11 16 13 8 22 20 21 22 27 26 26 26 26 28 27 23 22 21 22 22 21 21 20 18 17 15 17 18 17 17 20 20 20 15 18 19 18 16 9 8 8 12 15 16
17 16 5 14 11 10 12 9 6 3 16 24 23 24 23 24 26 26 28 27 26 26 25 21 20 19 18 18 17 16 16 18 15 17 20 16 17 21 22 20 17 12 9 8 7 10 13 17 18
15 19 10 6 3 11 10 4 6 7 13 14 17 24 24 23 24 26 27 26 25 24 22 20 19 17 15 16 19 17 17 14 14 16 15 20 24 25 19 13 10 10 9 6 8 12 15 17 19
15 8 4 5 7 10 8 9 11 13 13 13 19 16 20 20 21 23 25 25 23 21 19 17 16 16 14 13 15 14 14 16 16 16 18 22 21 17 16 13 11 9 7 8 11 14 16 17 16
9 9 5 6 6 1 8 8 6 9 6 8 17 22 19 20 22 24 23 23 22 19 17 16 14 14 13 14 13 12 12 11 16 19 25 21 18 15 14 13 8 7 9 10 13 13 15 16 14
10 9 8 2 2 6 2 7 7 8 8 5 11 10 12 18 20 21 21 21 20 18 16 16 13 12 11 9 7 8 12 16 18 23 20 19 16 15 14 10 10 8 10 13 12 13 15 15 14
Wind_Direction
234 229 216 228 239 232 245 235 239 247 202 241 289 243 246 338 318 28 146 166 163 165 168 167 164 161 160 162 166 166 164 159 154 149 146 149 143 138 135 134 133 133 132 126 121 116 103 70 46
233 194 188 233 239 231 232 231 216 231 102 265 233 223 227 282 3 121 128 159 162 165 167 171 164 164 165 167 169 169 167 163 165 160 157 154 149 144 139 137 139 139 132 131 128 119 90 54 32
203 184 217 222 230 236 236 212 228 231 197 226 251 239 317 93 145 155 161 161 161 165 170 172 167 167 169 172 174 174 174 172 173 168 165 159 156 151 146 145 147 145 144 141 134 121 83 38 9
182 194 244 238 230 231 240 244 205 239 226 235 237 255 175 124 141 167 160 161 163 165 168 173 170 169 171 173 178 180 180 178 177 172 170 165 159 158 155 155 152 151 148 145 139 123 28 360 352
195 217 230 226 237 244 231 247 216 234 225 203 197 211 236 186 145 145 155 162 162 165 169 173 173 170 172 174 177 181 182 180 176 173 172 168 163 164 162 162 158 160 159 154 162 193 323 329 328
206 224 231 230 229 238 239 225 227 234 215 207 222 232 224 168 149 156 158 162 164 166 167 173 173 172 173 173 176 178 177 176 175 173 173 172 172 172 173 171 173 177 178 184 212 254 282 300 309
232 213 233 241 235 236 229 210 238 235 228 219 219 231 129 160 169 160 158 163 168 167 165 172 174 173 173 174 176 178 176 177 175 176 178 177 178 180 182 182 187 196 209 231 263 274 286 296 303
224 250 244 241 237 243 234 227 221 239 231 239 217 231 214 189 160 158 160 167 170 168 171 169 174 175 174 175 179 180 179 180 179 179 180 183 186 187 188 191 205 219 248 271 279 291 294 293 303
228 234 235 234 231 244 240 240 222 235 244 230 223 240 168 167 158 159 164 171 172 174 174 173 172 173 171 175 179 181 184 183 183 183 184 184 173 191 188 212 228 263 286 293 301 307 307 309 323
216 227 237 245 250 229 248 229 231 218 230 228 223 182 163 162 165 170 172 175 178 177 179 180 176 177 173 176 180 180 186 186 184 182 190 173 187 188 195 238 262 281 297 314 313 314 312 335 321
220 241 242 241 252 267 255 247 232 229 232 222 220 203 184 173 175 179 179 180 181 180 180 184 178 177 177 177 173 177 182 187 187 189 191 191 191 210 211 246 304 295 307 329 315 324 328 312 319
237 241 244 266 235 244 246 250 235 234 233 250 219 224 190 187 187 184 183 183 181 183 181 184 184 180 178 181 178 181 181 185 187 195 205 205 199 219 216 239 264 315 304 309 321 311 314 328 326
234 240 236 239 249 239 248 244 241 232 228 188 137 176 194 196 194 191 185 184 181 184 182 185 187 185 183 182 183 181 184 181 188 199 207 203 195 211 224 241 247 271 293 313 321 314 306 321 325
247 239 248 240 236 245 241 244 234 232 223 217 216 210 204 200 195 189 187 182 184 183 184 184 188 190 191 187 191 189 189 190 195 192 205 212 208 219 215 229 254 267 291 287 306 316 303 311 328
252 256 241 234 239 236 242 252 238 228 218 220 223 217 215 203 196 193 191 186 185 185 182 187 196 193 195 193 204 199 200 198 195 194 210 208 209 220 214 198 219 238 254 329 311 289 309 327 338
242 242 242 228 220 233 223 247 228 224 226 213 213 208 213 203 196 194 193 189 187 185 188 196 192 194 202 197 201 196 198 194 193 194 200 202 209 212 206 199 201 228 250 283 292 336 352 348 343
232 233 225 236 213 214 209 243 246 214 221 223 217 214 207 201 192 192 192 191 190 188 192 194 196 196 200 199 198 199 202 195 193 196 198 205 206 209 191 199 220 225 235 258 311 13 6 355 345
225 226 240 223 220 211 221 228 252 211 218 227 223 218 207 201 197 191 191 193 193 191 194 195 197 192 195 197 199 198 200 195 194 194 196 207 206 203 202 205 210 218 214 212 224 244 359 355 335
263 237 230 233 223 216 225 228 225 219 214 221 217 214 210 200 195 192 189 191 190 192 200 195 203 193 194 194 196 193 192 191 195 200 201 201 195 201 205 208 205 193 171 159 184 183 184 339 336
256 237 238 221 223 227 230 226 234 224 235 225 217 210 206 192 187 189 188 188 191 194 195 200 202 196 198 196 192 192 189 193 197 204 202 202 209 215 213 213 213 229 238 233 191 176 179 305 333
238 225 237 227 214 213 227 232 214 226 224 228 221 209 202 196 187 186 188 188 188 193 195 197 200 200 199 204 195 193 193 182 201 210 207 208 219 221 222 215 218 215 203 182 165 145 113 316 289
212 226 237 261 202 193 216 216 205 217 217 222 207 199 196 195 190 186 185 187 191 194 192 196 197 199 200 200 193 204 194 194 203 218 217 221 230 227 213 208 213 209 192 174 184 187 253 275 294
226 316 246 246 187 208 185 249 183 202 205 207 210 197 197 193 190 188 188 187 186 186 185 190 193 196 198 199 197 201 186 201 208 200 212 215 210 205 206 211 204 167 160 181 182 189 263 280 292
138 244 247 212 187 214 176 225 153 185 196 198 199 195 192 189 187 188 188 187 187 193 183 194 192 188 192 196 195 193 195 199 210 217 215 218 223 227 215 211 232 229 190 187 222 214 250 275 295
207 227 180 183 191 202 174 214 21 191 195 197 192 184 186 185 181 182 183 186 188 186 180 190 189 192 197 197 200 200 203 218 235 237 234 235 227 222 209 190 171 179 193 219 216 244 275 290 300
208 226 298 173 187 127 157 219 122 285 181 200 191 175 179 183 180 182 182 182 183 183 184 186 184 186 191 196 202 207 212 233 225 233 244 223 205 191 187 186 188 185 216 211 241 275 294 300 306
209 220 257 314 336 142 172 158 115 146 158 191 192 181 179 180 181 180 182 183 182 183 183 183 186 191 198 204 215 220 229 209 209 224 211 211 194 190 183 188 184 185 197 235 272 289 295 306 313
268 219 201 229 180 147 173 171 106 141 161 175 191 174 170 176 176 180 184 184 182 182 182 182 189 196 201 202 223 215 227 229 219 214 213 199 195 178 181 187 173 195 224 260 285 299 306 314 317
207 220 266 319 319 146 152 110 43 82 81 141 171 180 169 174 174 173 174 177 176 175 177 175 176 182 189 211 227 233 235 218 205 203 190 181 170 177 183 167 192 223 253 277 291 300 313 324 315
226 262 231 325 144 7 179 92 69 61 86 117 139 160 161 169 168 168 167 164 164 161 160 167 152 158 176 182 176 190 188 188 200 189 169 160 175 157 174 170 206 240 271 283 291 307 318 321 325